Wind_Speed
17 19 22 24 27 29 30 30 28 27 25 28 39 51 45 46 42 38 36 32 30 28 29 28 27 27 25 22 19 17 15 13 11 10 9 9 10 11 13 15 17 18 20 22 24 26 29
16 20 23 25 28 30 30 29 28 25 27 34 47 52 48 45 41 37 34 32 30 29 29 28 26 26 25 23 22 19 18 16 14 13 12 13 14 16 18 19 20 22 23 24 27 28 30
17 22 25 27 28 28 28 28 27 26 32 40 51 50 48 43 39 37 34 31 29 29 29 29 28 26 26 25 24 22 20 18 17 17 17 18 19 20 21 23 23 24 26 28 29 31 32
19 24 26 27 27 28 27 28 27 28 36 44 54 51 47 42 39 37 35 33 31 30 30 29 28 28 28 27 25 24 24 23 22 22 22 23 23 24 24 24 25 27 28 29 31 34 35
22 26 27 26 27 27 27 29 28 31 40 47 56 54 49 44 40 38 35 33 33 32 32 32 32 31 30 29 28 28 28 27 26 27 28 28 28 28 28 29 30 31 32 33 34 37 37
24 27 27 27 27 27 27 29 29 35 43 50 57 54 51 47 42 39 37 35 34 33 33 34 35 34 34 34 33 32 32 31 32 32 32 32 33 32 33 33 34 35 37 40 39 40 42
27 28 29 28 29 28 28 30 30 39 46 54 58 55 52 47 44 42 39 37 36 36 35 36 36 37 38 37 37 37 36 36 37 37 36 37 37 37 37 38 38 39 42 44 44 43 45
29 31 31 31 31 30 28 29 30 39 48 54 58 56 52 49 46 43 42 39 39 40 40 40 39 39 40 41 42 42 41 42 42 43 42 41 41 41 42 43 43 44 46 48 50 49 48
30 32 34 33 33 31 30 30 30 41 50 55 60 59 56 52 49 47 46 44 43 42 40 41 41 43 43 44 45 46 47 47 47 47 46 46 46 46 47 49 47 49 50 52 52 53 54
30 33 35 35 34 34 34 33 33 40 50 55 60 58 57 55 52 50 49 48 46 45 43 44 44 45 47 48 49 50 51 52 52 52 51 51 52 52 52 54 53 55 57 57 58 58 57
30 34 36 38 38 37 38 38 37 39 51 57 58 60 59 59 56 55 53 52 50 49 45 48 48 48 50 51 51 53 54 54 54 54 56 57 57 56 58 59 60 60 62 64 64 64 61
31 33 36 38 40 42 42 43 43 43 49 57 60 60 60 60 60 58 57 56 55 53 51 52 53 54 53 53 54 55 55 56 57 58 59 61 61 62 63 65 67 67 68 69 70 70 67
30 34 37 39 41 43 43 44 44 46 49 57 59 62 62 64 62 62 61 59 58 56 59 57 58 58 57 58 58 59 59 61 62 62 64 65 65 66 67 69 72 72 74 77 75 76 76
39 36 38 42 43 44 45 46 47 48 50 56 62 64 63 64 64 65 64 63 60 62 64 63 63 62 61 63 63 65 64 65 67 68 69 70 69 72 73 74 76 77 81 85 85 83 82
46 46 44 44 48 48 48 49 49 50 51 54 59 65 65 67 67 68 68 65 65 68 70 68 68 68 67 69 71 70 69 69 72 74 76 75 72 75 76 79 81 83 86 89 95 94 92
54 53 53 53 51 52 53 53 53 53 53 54 58 64 65 66 66 68 69 66 69 73 73 73 72 73 72 74 75 76 74 72 75 80 83 82 80 78 80 83 86 90 91 94 99 102 99
61 60 60 60 59 59 60 58 57 55 55 55 58 61 68 69 69 70 71 71 74 76 77 77 76 77 77 79 81 80 78 79 81 85 88 90 90 84 85 88 92 95 97 101 104 104 107
68 69 67 65 65 64 65 66 66 64 63 62 61 63 68 71 72 73 73 75 77 78 81 83 83 83 84 86 86 85 85 87 88 90 93 96 97 92 92 94 96 99 101 104 108 104 104
73 75 75 73 71 67 67 69 69 71 70 69 70 69 71 73 76 78 79 80 82 83 85 87 88 89 90 91 94 92 92 92 95 97 101 101 102 100 98 99 102 105 104 103 101 100 98
75 75 79 79 77 73 71 69 70 73 73 74 75 74 76 79 81 82 85 85 87 88 89 93 94 96 97 97 99 97 97 99 100 103 107 109 106 106 104 104 105 103 98 97 100 101 106
66 75 79 80 79 79 77 75 73 72 74 79 81 81 82 83 86 87 88 88 91 94 96 97 98 100 103 104 104 103 104 106 106 106 107 110 110 111 105 101 102 101 101 104 106 109 117
48 58 72 78 82 81 82 82 82 82 81 81 82 83 83 85 91 93 97 94 96 98 99 102 106 104 105 108 110 107 110 108 107 108 111 111 108 106 103 103 109 112 108 111 114 117 123
45 49 55 64 75 83 85 88 88 87 88 90 89 88 88 88 90 93 96 97 101 105 105 105 108 108 108 112 112 111 111 110 110 106 107 109 109 112 114 112 120 122 112 119 121 122 124
49 51 57 64 70 78 84 90 93 93 93 93 95 95 95 94 97 100 102 103 105 107 107 104 110 109 109 112 110 109 109 109 110 109 113 114 116 120 124 124 128 122 125 126 125 124 126
59 62 64 67 72 77 84 91 96 99 100 99 99 100 101 100 104 106 107 108 108 108 108 108 110 112 111 112 115 115 115 118 115 119 120 121 124 128 131 133 134 133 133 133 132 130 127
63 66 68 70 75 78 83 87 93 99 103 106 107 109 111 108 114 113 115 116 116 115 114 115 116 118 120 119 121 125 124 123 125 125 123 126 129 135 136 139 142 138 138 136 134 135 127
71 71 73 75 77 80 84 86 91 96 100 104 111 115 117 116 120 123 123 124 125 125 121 122 123 126 129 130 130 132 134 134 138 137 138 138 136 135 135 136 136 135 136 139 142 137 135
84 87 89 90 92 91 91 92 93 95 97 100 106 110 111 112 116 123 127 129 132 133 130 130 129 132 130 133 136 137 138 139 139 139 139 141 140 138 137 139 140 140 139 140 145 146 145
98 98 97 96 93 91 92 94 95 98 100 104 110 111 112 114 116 123 127 129 130 131 132 133 134 135 136 137 137 138 139 139 140 137 139 140 141 141 144 144 145 144 146 148 150 151 151
Wind_Direction
183 183 183 180 178 176 178 182 186 193 200 191 179 178 180 182 187 193 197 197 197 199 197 197 197 199 197 195 199 206 213 220 229 240 255 272 284 290 300 304 306 311 316 318 320 322 323
192 190 188 183 181 182 185 187 190 197 195 187 180 179 181 186 192 193 194 196 199 200 202 202 203 205 205 206 211 216 221 227 235 246 260 273 282 289 292 293 298 305 310 311 315 315 316
204 197 192 188 188 190 192 192 196 200 192 184 181 182 185 190 194 195 197 198 203 207 210 209 210 213 215 217 220 227 233 238 246 254 264 274 281 284 288 290 295 299 305 308 310 310 311
206 201 195 194 196 198 200 199 202 202 194 188 186 186 191 194 198 199 200 202 207 210 215 217 218 221 224 228 232 237 242 247 254 261 267 275 280 286 292 294 294 297 301 304 306 307 309
210 205 201 202 202 206 209 207 208 205 198 193 192 194 196 199 202 205 207 211 215 220 220 222 224 228 232 236 239 243 248 255 259 265 272 276 283 289 289 292 293 294 298 302 305 305 307
215 207 208 210 210 213 216 213 215 209 201 197 196 199 201 204 207 211 215 217 223 225 227 229 231 234 238 242 245 249 254 260 264 268 273 277 281 286 287 288 291 292 297 301 305 305 306
220 213 214 215 215 220 221 219 222 212 205 201 200 203 206 209 212 215 219 224 229 232 234 235 237 240 243 248 252 256 258 262 267 271 273 276 279 282 285 288 289 291 293 297 299 299 302
226 222 219 221 220 224 228 226 228 217 210 207 207 208 210 213 217 220 224 227 232 236 238 240 243 247 250 252 255 258 261 264 268 271 274 276 277 280 283 285 287 288 290 292 295 297 300
232 230 227 226 226 228 230 230 232 220 214 212 211 213 216 219 221 224 228 232 236 239 243 247 250 251 255 258 260 262 264 266 268 271 274 276 277 279 281 284 286 288 288 290 291 295 298
237 235 234 235 233 232 235 237 234 225 218 215 215 218 220 222 224 228 231 236 238 241 246 251 255 258 259 262 264 266 267 268 270 271 274 277 279 280 282 284 285 286 287 288 290 292 296
244 239 239 239 239 239 240 242 239 232 223 219 218 221 224 225 227 230 234 239 242 245 248 253 257 259 260 264 266 268 268 270 271 271 274 277 280 281 282 283 284 285 288 290 292 293 296
250 244 243 242 241 242 243 243 243 237 230 225 225 225 226 228 230 234 238 241 244 247 251 253 259 261 263 265 267 269 269 270 271 273 274 276 278 280 282 284 286 289 289 290 291 295 298
264 254 245 243 244 243 244 245 245 243 236 231 229 229 230 231 233 236 240 243 246 251 253 255 259 261 264 267 268 269 270 272 272 273 275 276 279 280 283 284 287 289 290 291 292 295 296
256 259 255 245 244 247 248 249 249 249 245 238 233 232 233 235 237 239 241 244 248 253 256 256 259 262 265 267 268 269 271 274 275 276 276 278 280 283 284 286 288 290 291 292 294 293 292
250 251 253 253 248 248 249 252 254 255 253 247 241 237 238 238 239 241 244 246 250 255 257 259 261 262 265 267 268 270 272 273 276 277 277 278 280 282 285 287 289 290 291 293 293 293 294
253 250 248 250 252 251 250 251 252 255 256 254 251 244 243 244 244 246 247 249 253 256 258 260 262 264 265 267 269 270 272 273 275 277 279 280 280 281 283 286 288 288 290 291 291 292 295
250 250 250 247 249 250 251 249 249 252 254 254 254 254 246 245 249 251 251 252 254 257 259 261 262 264 265 266 268 270 273 275 275 276 278 280 281 283 285 286 287 289 290 290 290 293 294
254 249 249 249 248 248 250 251 251 251 252 253 254 255 254 251 251 253 253 255 257 259 262 262 262 264 266 267 269 271 272 274 275 277 279 280 281 283 284 286 287 287 288 290 292 292 293
254 253 248 249 250 247 248 251 253 251 252 252 253 253 255 256 255 255 255 257 258 260 262 264 266 267 268 269 271 272 274 275 277 278 278 279 281 283 284 285 285 285 287 287 287 289 293
251 249 250 250 249 250 250 250 254 254 254 254 256 256 257 258 260 259 260 261 262 262 263 265 266 267 268 269 271 272 274 275 275 276 278 279 281 282 284 284 284 285 284 283 284 289 289
254 248 250 252 252 251 250 252 252 252 251 254 255 255 255 258 260 260 259 259 261 262 263 264 265 267 268 270 272 274 274 274 276 277 279 281 282 283 284 283 282 282 283 286 290 290 289
263 258 252 250 250 252 251 251 253 251 252 253 254 253 253 253 256 260 263 263 262 263 265 265 267 268 271 272 271 271 274 276 277 278 280 280 281 280 280 281 282 284 287 290 288 289 291
260 260 259 256 254 252 253 252 253 254 256 257 257 258 257 256 257 259 260 262 263 265 265 266 266 267 270 271 272 274 274 275 277 276 277 278 280 282 283 283 283 284 290 287 288 290 288
262 262 261 260 257 254 252 253 253 255 256 258 260 260 261 260 260 260 260 261 263 265 266 267 270 270 271 272 272 273 274 274 275 277 278 280 281 281 282 282 283 286 285 287 286 285 286
268 264 260 258 257 257 257 255 255 255 255 257 260 261 261 261 262 263 263 262 264 265 266 266 267 270 272 273 274 274 274 275 276 277 278 279 280 281 281 283 284 286 286 284 284 285 285
276 275 274 273 270 266 262 261 260 260 260 260 260 261 261 262 263 263 264 265 266 266 267 268 269 270 271 271 272 273 273 274 275 275 275 276 278 280 282 283 286 286 285 285 284 283 284
280 278 275 271 269 267 266 266 266 265 264 263 263 262 262 263 264 265 266 267 268 268 268 269 271 270 271 271 272 274 275 276 276 277 277 278 278 279 279 278 278 279 281 281 282 283 283
283 284 283 283 282 279 273 269 267 264 263 262 263 263 262 262 263 264 265 266 267 268 268 268 269 270 270 272 274 274 274 274 275 275 276 277 277 276 277 277 278 279 279 279 281 283 284
286 285 285 283 281 278 277 275 272 268 266 265 264 263 263 262 262 263 264 264 265 266 266 267 267 267 267 267 269 270 270 272 273 273 273 273 275 276 277 278 279 279 279 280 281 282 283
Height
10685 10686 10688 10690 10693 10696 10700 10704 10708 10711 10713 10715 10718 10723 10729 10734 10737 10741 10744 10747 10749 10751 10753 10755 10756 10757 10758 10760 10761 10762 10763 10764 10764 10765 10765 10765 10764 10763 10762 10761 10760 10759 10758 10756 10754 10752 10749
10686 10687 10690 10692 10694 10697 10701 10703 10706 10709 10711 10714 10718 10723 10728 10732 10736 10739 10742 10745 10747 10750 10752 10753 10754 10756 10757 10758 10759 10759 10760 10761 10762 10762 10762 10761 10760 10759 10759 10758 10756 10755 10754 10752 10750 10748 10746
10686 10688 10690 10693 10695 10698 10700 10703 10705 10707 10710 10713 10718 10722 10727 10730 10733 10737 10740 10742 10745 10747 10749 10750 10752 10753 10754 10755 10756 10756 10757 10758 10758 10758 10758 10757 10756 10755 10754 10753 10752 10751 10749 10747 10745 10743 10741
10685 10687 10689 10692 10695 10698 10700 10702 10704 10707 10710 10713 10717 10721 10725 10728 10731 10734 10737 10739 10741 10743 10745 10747 10748 10750 10751 10751 10752 10752 10753 10754 10754 10753 10753 10752 10752 10750 10749 10748 10747 10745 10744 10743 10740 10737 10734
10683 10686 10688 10691 10693 10697 10699 10701 10703 10705 10708 10711 10714 10718 10722 10725 10729 10731 10734 10736 10738 10739 10741 10742 10744 10745 10747 10747 10747 10748 10748 10749 10749 10748 10747 10747 10746 10745 10744 10742 10740 10739 10737 10735 10734 10730 10728
10682 10683 10686 10689 10691 10694 10697 10699 10701 10703 10706 10710 10713 10716 10719 10722 10725 10728 10729 10731 10733 10735 10736 10738 10740 10741 10741 10742 10742 10743 10743 10743 10743 10742 10741 10740 10740 10738 10737 10735 10733 10732 10729 10727 10726 10722 10719
10679 10681 10684 10686 10688 10691 10693 10696 10698 10700 10703 10707 10710 10713 10716 10719 10721 10723 10725 10727 10729 10730 10732 10733 10734 10735 10735 10736 10736 10737 10736 10736 10736 10735 10734 10733 10732 10731 10730 10727 10726 10723 10721 10719 10718 10717 10713
10677 10678 10680 10682 10684 10686 10689 10692 10694 10697 10700 10703 10707 10709 10712 10715 10717 10718 10720 10721 10723 10725 10726 10727 10728 10729 10729 10729 10729 10729 10729 10728 10728 10727 10726 10725 10723 10722 10721 10718 10717 10715 10713 10710 10707 10706 10706
10673 10675 10677 10678 10680 10682 10684 10686 10688 10691 10695 10698 10701 10704 10706 10709 10711 10712 10714 10715 10717 10718 10720 10720 10721 10721 10721 10721 10721 10721 10720 10719 10718 10718 10717 10716 10714 10713 10710 10708 10707 10703 10702 10700 10699 10696 10695
10668 10670 10672 10673 10674 10676 10678 10680 10682 10685 10688 10692 10695 10698 10700 10702 10704 10705 10707 10708 10709 10711 10713 10713 10713 10713 10713 10712 10712 10710 10710 10709 10708 10707 10706 10705 10702 10702 10699 10695 10696 10692 10689 10689 10687 10686 10686
10662 10664 10666 10667 10668 10670 10672 10673 10675 10678 10681 10684 10687 10689 10691 10693 10695 10697 10698 10700 10701 10702 10707 10704 10704 10703 10703 10702 10701 10701 10699 10698 10696 10697 10694 10692 10690 10689 10686 10682 10681 10681 10677 10674 10673 10672 10675
10655 10657 10659 10660 10661 10662 10664 10665 10668 10670 10672 10676 10679 10681 10683 10685 10686 10687 10688 10690 10691 10694 10697 10695 10692 10692 10691 10691 10690 10688 10688 10686 10684 10683 10681 10678 10678 10675 10673 10669 10665 10665 10661 10659 10658 10656 10660
10648 10650 10650 10652 10653 10654 10655 10657 10659 10661 10663 10665 10668 10671 10672 10674 10676 10676 10678 10680 10682 10685 10681 10683 10681 10680 10680 10678 10677 10675 10674 10673 10671 10669 10667 10665 10664 10662 10659 10656 10651 10648 10644 10639 10642 10641 10639
10641 10641 10642 10643 10644 10646 10647 10648 10649 10651 10652 10654 10655 10657 10659 10662 10663 10664 10666 10668 10674 10670 10665 10669 10668 10668 10668 10664 10664 10662 10663 10660 10656 10654 10653 10651 10653 10645 10644 10641 10637 10634 10626 10617 10616 10621 10623
10631 10633 10633 10634 10635 10637 10638 10639 10640 10641 10642 10643 10645 10646 10648 10649 10650 10652 10654 10659 10660 10654 10650 10653 10654 10655 10655 10650 10646 10648 10648 10648 10642 10637 10633 10636 10641 10634 10630 10625 10620 10617 10609 10602 10590 10592 10596
10619 10621 10622 10623 10625 10626 10627 10627 10629 10630 10631 10632 10632 10633 10635 10636 10638 10639 10641 10647 10641 10636 10637 10638 10640 10639 10640 10634 10631 10630 10633 10636 10627 10619 10613 10616 10618 10622 10618 10613 10605 10595 10594 10584 10571 10565 10571
10605 10606 10608 10609 10612 10612 10614 10615 10617 10618 10619 10620 10620 10620 10622 10623 10624 10624 10628 10628 10624 10623 10621 10622 10623 10622 10621 10618 10614 10615 10618 10616 10610 10604 10597 10592 10591 10605 10602 10596 10586 10577 10573 10560 10551 10551 10541
10589 10591 10592 10594 10595 10596 10598 10600 10603 10603 10604 10605 10607 10607 10606 10607 10608 10609 10611 10611 10611 10609 10604 10603 10604 10603 10601 10597 10598 10599 10598 10592 10591 10586 10579 10573 10570 10582 10582 10575 10569 10559 10551 10540 10530 10529 10523
10570 10573 10574 10576 10578 10579 10581 10582 10585 10586 10587 10589 10589 10591 10588 10589 10590 10590 10592 10593 10593 10592 10587 10585 10584 10582 10580 10580 10573 10579 10579 10577 10569 10564 10556 10555 10553 10557 10562 10558 10545 10535 10533 10524 10513 10509 10511
10550 10553 10556 10559 10561 10564 10566 10566 10567 10570 10571 10572 10572 10576 10574 10572 10571 10573 10572 10574 10572 10570 10569 10563 10564 10559 10558 10558 10553 10557 10558 10553 10548 10542 10533 10527 10533 10531 10536 10532 10520 10515 10510 10504 10495 10495 10484
10532 10535 10538 10541 10544 10547 10548 10550 10549 10549 10551 10551 10553 10556 10557 10557 10551 10549 10548 10553 10550 10545 10541 10542 10542 10538 10531 10532 10532 10532 10529 10525 10526 10522 10515 10505 10506 10498 10510 10506 10489 10485 10487 10484 10479 10471 10448
10517 10517 10520 10521 10524 10526 10528 10528 10531 10528 10529 10531 10531 10531 10535 10538 10532 10527 10523 10531 10527 10524 10523 10520 10509 10515 10514 10507 10501 10509 10500 10504 10503 10499 10490 10485 10482 10473 10480 10476 10459 10453 10470 10461 10449 10439 10422
10505 10504 10504 10504 10504 10506 10507 10508 10508 10508 10507 10508 10510 10510 10513 10516 10511 10506 10501 10500 10496 10493 10497 10494 10488 10487 10489 10479 10477 10482 10480 10481 10473 10475 10469 10459 10456 10448 10442 10445 10427 10428 10454 10426 10417 10411 10391
10490 10488 10487 10487 10486 10485 10485 10485 10484 10485 10485 10486 10484 10485 10486 10490 10484 10479 10474 10471 10470 10466 10470 10472 10460 10460 10463 10455 10456 10456 10454 10451 10447 10450 10440 10436 10429 10416 10411 10411 10397 10422 10410 10401 10391 10387 10370
10477 10474 10470 10467 10465 10464 10464 10462 10460 10459 10461 10461 10458 10457 10455 10460 10453 10448 10447 10446 10446 10443 10443 10444 10440 10433 10433 10431 10424 10423 10425 10419 10427 10417 10414 10409 10394 10384 10378 10376 10376 10381 10376 10364 10358 10353 10345
10462 10459 10456 10453 10450 10447 10444 10441 10437 10435 10435 10434 10432 10428 10428 10434 10418 10420 10414 10412 10414 10417 10420 10416 10412 10407 10400 10401 10394 10385 10389 10391 10385 10386 10392 10383 10375 10357 10356 10342 10335 10331 10324 10321 10321 10312 10316
10442 10438 10434 10430 10426 10423 10419 10416 10413 10410 10406 10404 10399 10400 10401 10402 10395 10384 10386 10382 10378 10379 10390 10387 10382 10375 10366 10367 10367 10361 10355 10353 10344 10348 10344 10345 10343 10334 10330 10316 10305 10298 10290 10282 10273 10279 10277
10419 10413 10408 10402 10396 10392 10388 10384 10381 10378 10373 10370 10362 10362 10365 10367 10361 10348 10345 10346 10341 10342 10355 10351 10349 10341 10342 10328 10325 10324 10321 10318 10314 10310 10309 10299 10295 10295 10295 10287 10281 10270 10266 10256 10243 10237 10236
10393 10384 10377 10369 10362 10359 10355 10350 10346 10344 10341 10338 10329 10328 10329 10328 10328 10313 10305 10303 10306 10313 10318 10313 10308 10307 10302 10297 10290 10291 10286 10279 10274 10280 10265 10261 10260 10256 10245 10242 10239 10238 10233 10225 10216 10207 10203